GFSSGP_prec_cthk_141.txt.gz
RH
15 14 14 15 19 27 27 27 22 19 18 17 19 31 34 41 50 64 70 71 62 50 44 34 27 26 25 27 29 29 28 26 25 24 25 26 27 24 22 22 22 22 22 22 23 23 22 22 24
15 15 15 16 25 27 27 24 21 20 20 21 22 33 39 42 51 59 64 63 56 51 40 39 32 30 29 31 33 34 34 33 30 28 28 28 29 29 27 24 24 23 23 23 23 24 24 23 24
15 15 16 19 24 29 30 26 22 22 20 18 24 30 42 48 43 49 60 55 56 45 40 38 34 32 34 35 34 35 35 35 36 35 33 32 33 33 33 30 26 25 25 25 25 25 24 25 25
16 16 18 19 22 25 27 24 23 20 18 18 24 36 42 46 45 44 46 52 50 39 33 29 29 30 31 32 33 34 34 35 36 37 37 36 36 37 36 35 32 28 26 26 26 26 26 26 26
18 17 20 25 28 34 32 27 25 24 22 22 26 32 34 39 41 39 41 44 42 32 28 28 29 30 31 33 35 35 36 38 38 39 39 39 38 39 40 40 37 34 30 27 27 26 27 28 27
18 18 22 26 26 30 35 32 26 27 21 25 30 36 37 32 37 36 35 37 33 32 31 28 30 32 33 34 35 36 38 40 43 44 45 44 42 42 42 43 42 39 39 35 32 30 30 33 32
17 21 23 24 28 30 31 27 25 23 24 23 27 32 32 30 30 31 29 30 34 34 31 33 33 33 34 35 36 38 41 43 46 48 50 50 48 47 46 47 48 48 45 44 42 37 36 36 37
14 17 19 21 30 31 29 27 27 26 27 25 26 31 31 27 30 32 34 35 34 34 34 37 38 39 42 39 40 41 45 48 47 47 48 50 53 55 52 49 51 53 53 51 47 44 44 40 39
13 15 15 21 27 29 29 29 31 28 28 27 27 29 31 29 30 32 32 34 34 36 38 40 40 40 40 38 37 42 43 38 40 42 44 44 46 51 58 56 59 60 58 58 55 52 49 45 40
15 15 18 23 27 31 33 33 32 29 25 29 27 27 26 29 32 34 34 34 34 36 39 40 37 31 28 30 31 39 40 49 50 46 47 48 47 47 48 53 57 64 68 68 66 63 57 57 51
18 16 18 21 20 25 29 33 31 30 28 27 27 24 21 23 26 28 30 31 29 25 23 22 24 30 27 29 33 37 41 42 44 57 74 56 54 43 45 46 54 63 75 79 80 77 74 68 68
19 17 18 20 17 20 24 25 26 24 18 20 25 26 22 21 20 18 17 17 16 16 15 15 16 17 23 30 36 41 43 45 48 51 57 57 48 41 38 39 41 53 64 70 78 79 79 81 85
21 21 17 16 16 15 15 13 13 14 18 17 17 19 20 22 21 18 19 19 17 16 16 15 16 18 18 19 27 35 43 46 43 42 42 44 42 34 34 35 36 39 45 56 66 76 83 94 97
22 20 17 16 17 15 15 15 16 13 18 20 19 21 20 21 21 19 19 19 18 17 16 16 17 18 20 22 24 29 33 38 43 44 43 39 35 35 34 34 36 38 39 41 43 44 52 67 82
19 19 17 16 16 17 19 20 19 18 23 25 23 25 25 24 24 25 26 26 25 22 21 21 21 22 24 27 30 32 34 36 38 39 39 38 38 38 36 38 38 36 38 37 39 43 42 49 59
19 19 19 15 18 19 21 24 23 22 24 27 29 30 31 31 31 30 30 31 31 29 28 29 30 31 32 34 33 33 34 33 35 37 38 39 38 40 41 42 42 42 41 42 41 42 45 48 52
20 21 21 23 23 24 25 28 25 23 26 29 31 30 30 32 33 33 33 33 32 28 28 28 27 28 30 35 35 36 35 34 35 36 38 38 39 39 40 40 38 39 40 42 47 51 51 53 51
23 26 26 28 28 30 32 31 28 26 27 28 31 33 33 33 35 35 34 32 29 26 26 26 26 26 26 27 29 31 33 31 31 30 31 32 34 35 36 36 36 37 36 36 39 42 43 44 45
27 27 28 26 32 28 32 30 28 27 27 28 33 33 33 33 35 36 37 35 30 27 28 27 26 26 26 27 29 31 34 34 34 32 32 30 31 32 32 33 34 34 34 34 35 36 39 39 40
30 30 31 27 28 32 29 27 26 27 27 30 31 34 34 34 35 37 39 38 29 29 29 28 28 28 26 25 24 25 26 26 26 25 24 23 24 24 26 29 31 33 35 33 32 33 36 39 44
30 31 31 30 28 26 26 22 24 25 25 28 34 36 37 36 38 40 41 37 33 32 32 30 28 23 21 21 20 20 21 21 20 20 20 21 21 19 19 19 21 25 30 34 37 37 37 37 40
32 33 32 31 31 34 31 32 24 24 27 33 41 41 40 41 41 42 46 39 37 39 35 29 26 24 24 24 23 22 22 23 23 23 23 22 22 22 22 23 22 22 22 22 27 33 37 41 43
33 34 35 34 36 35 33 41 21 23 24 35 37 42 42 43 45 46 47 41 42 40 37 33 28 28 27 27 26 26 26 25 24 24 23 23 23 23 23 23 23 25 27 28 28 30 32 36 39
33 37 37 37 40 46 32 36 26 31 33 44 52 49 48 52 55 53 47 45 46 43 39 34 32 31 31 31 30 30 30 29 29 28 27 26 26 26 26 27 27 29 29 32 34 35 35 36 37
36 40 48 47 54 51 33 42 38 39 43 46 48 53 56 60 59 52 50 48 49 47 43 39 36 34 34 35 36 35 36 35 34 33 31 30 29 30 31 32 34 36 35 35 36 39 41 42 44
39 42 54 57 54 48 36 41 36 43 41 46 52 53 57 55 54 57 56 53 52 52 49 47 43 42 41 42 44 44 42 42 41 39 38 35 34 35 37 38 38 40 39 38 39 41 44 50 48
43 50 47 60 62 59 46 37 34 44 49 55 62 65 68 69 67 68 71 66 61 59 56 52 49 47 47 46 46 47 47 47 48 46 42 40 40 42 44 44 44 45 44 44 45 45 49 54 54
47 49 59 66 72 73 52 47 46 55 62 71 80 88 86 90 88 80 81 73 71 65 56 52 53 53 53 53 51 51 51 50 48 46 43 42 44 47 50 52 53 52 52 52 52 56 55 50 48
59 60 60 62 68 74 64 49 48 52 58 65 70 73 87 88 95 93 94 88 83 73 72 65 63 62 61 62 58 54 52 49 45 41 37 34 39 44 47 46 47 53 54 54 56 55 55 54 52
65 59 60 79 75 83 81 66 52 63 59 66 65 67 70 68 78 82 91 93 91 82 82 80 72 68 66 66 64 57 53 49 44 35 29 27 29 33 42 34 35 34 37 41 48 56 59 58 57

GFSSGP_prec_cthk_144.txt.gz
RH
13 13 13 14 22 28 27 21 19 20 22 33 28 29 36 40 45 59 57 57 57 48 45 44 39 32 26 24 24 26 27 27 28 27 27 28 27 24 21 20 20 21 23 24 25 26 26 27 29
13 13 13 16 27 30 27 22 20 20 26 31 33 36 34 38 44 55 60 63 64 57 53 48 40 38 30 28 30 31 32 32 32 31 30 30 31 31 28 25 22 22 23 25 26 26 26 27 28
14 13 14 21 30 28 25 21 21 21 25 30 35 37 34 36 41 50 56 65 63 57 54 49 43 42 35 35 35 34 34 33 33 34 35 35 34 34 34 31 28 25 24 25 26 27 28 29 30
14 14 16 22 23 26 26 23 22 25 31 31 31 35 38 40 41 43 47 52 57 51 54 49 43 39 35 34 34 36 37 37 36 37 38 38 38 38 38 38 35 31 27 26 27 28 29 30 30
15 15 19 25 26 26 24 25 22 24 30 29 30 33 38 44 41 45 48 48 44 39 40 39 35 34 36 37 37 39 39 40 40 41 42 42 42 42 42 42 41 39 36 32 29 29 30 30 31
15 16 20 26 28 25 24 25 26 27 30 31 30 29 33 41 40 40 39 39 34 30 32 32 33 36 37 39 40 41 40 40 42 43 44 45 46 47 48 48 48 45 42 39 37 35 33 32 33
16 17 20 25 27 24 23 27 27 29 29 27 29 27 30 33 36 34 33 33 30 30 33 34 35 37 40 40 40 40 41 42 43 45 46 47 49 50 52 52 52 52 50 48 46 43 40 36 35
13 15 16 21 28 27 26 27 28 28 27 28 27 28 27 29 32 31 34 34 34 35 37 38 38 38 37 37 38 41 44 41 42 42 43 45 48 50 55 58 64 64 62 55 52 53 51 47 42
12 14 15 17 24 27 28 28 30 27 28 29 28 26 27 27 28 32 35 39 39 39 40 40 40 40 39 40 40 35 32 32 33 36 43 42 40 39 41 47 51 57 63 65 66 66 67 61 53
14 15 14 20 24 27 28 30 30 30 29 31 30 28 25 26 28 30 33 35 37 39 42 43 43 39 34 31 28 29 31 33 35 35 38 49 53 53 49 52 49 47 54 60 67 70 74 80 80
17 17 17 18 22 24 28 27 28 32 30 31 31 28 21 23 24 24 26 26 23 21 22 23 22 26 28 29 31 29 31 34 37 37 38 47 55 60 59 59 50 52 50 54 64 72 83 93 92
20 19 19 20 19 20 21 24 25 26 27 29 27 24 22 21 20 21 21 21 19 19 19 19 18 17 17 20 29 34 35 38 34 37 43 46 49 52 50 46 41 40 38 42 48 59 72 81 87
19 20 20 20 19 18 19 20 21 18 19 20 20 22 22 22 22 21 19 17 16 15 15 15 16 17 18 19 21 28 37 39 42 43 43 46 45 44 44 43 37 35 36 37 40 40 50 61 73
20 23 22 21 20 18 16 14 14 13 18 19 19 20 21 20 20 19 19 19 18 19 19 19 18 18 20 21 23 25 29 35 41 46 49 49 48 44 42 38 35 34 36 36 37 37 37 39 46
19 20 20 18 17 17 18 18 17 18 20 22 22 21 22 22 23 23 22 23 22 23 23 26 27 29 31 30 29 30 32 34 36 37 38 40 42 40 41 39 38 37 40 39 38 38 38 37 40
19 19 21 15 15 16 16 19 19 21 22 24 24 24 24 26 26 25 26 27 29 30 30 30 28 29 32 33 33 31 31 32 33 35 36 37 37 36 37 40 43 42 42 43 43 41 42 42 41
20 22 21 19 22 24 23 23 23 24 25 26 25 25 27 26 25 25 26 26 27 28 28 25 22 23 26 30 30 30 30 29 28 28 30 31 32 34 36 37 38 39 38 38 39 41 42 41 40
25 24 22 25 23 25 25 25 25 26 25 26 26 27 28 29 29 30 31 31 31 31 31 26 23 24 26 28 28 29 28 30 30 29 29 29 29 30 31 33 34 35 36 36 36 37 38 36 37
26 29 29 27 28 27 29 29 29 31 32 31 31 30 31 32 33 34 36 35 35 37 35 32 26 25 26 28 29 30 31 28 25 23 21 19 18 19 20 21 24 29 31 32 32 32 33 35 35
33 34 34 31 28 29 29 29 28 29 33 35 33 34 34 35 35 37 37 38 40 38 36 33 26 27 25 23 23 23 23 22 22 22 21 20 20 20 20 19 19 18 18 20 25 29 31 31 32
37 37 37 36 32 29 28 26 29 30 32 34 36 33 34 34 36 39 41 43 43 42 39 33 28 27 26 24 24 23 23 23 24 23 23 22 21 20 20 20 19 19 20 20 20 20 22 28 31
39 39 38 37 36 37 30 30 25 24 26 30 33 34 35 37 39 42 44 48 48 45 44 34 34 32 29 27 26 26 26 26 24 24 24 24 23 23 23 23 22 22 22 21 21 21 22 22 24
37 37 37 37 38 38 37 40 26 25 27 28 32 33 36 40 41 46 50 56 56 52 49 39 39 35 32 30 30 30 30 29 29 29 28 27 26 26 25 24 24 24 25 25 27 27 27 27 28
39 40 40 40 40 44 38 40 27 27 33 36 40 41 40 42 48 56 61 65 64 57 49 47 41 39 37 36 35 35 36 36 36 34 33 32 30 29 28 27 27 27 28 29 30 32 32 32 32
40 41 49 49 54 45 35 40 33 33 37 38 41 44 45 50 56 60 68 69 64 56 52 49 48 46 44 42 42 40 42 44 43 42 41 38 35 33 32 32 31 31 31 32 34 36 37 37 37
39 40 52 56 55 45 38 45 43 48 45 42 47 51 55 60 61 62 65 67 63 60 57 58 57 53 51 51 47 47 46 46 45 43 41 39 37 35 36 37 38 38 38 38 41 41 41 41 40
39 44 42 51 55 56 49 46 52 54 55 53 55 60 65 68 71 72 76 80 84 73 67 72 69 62 56 52 51 53 56 50 49 45 43 41 38 37 36 41 42 42 42 46 46 46 47 47 46
43 46 56 64 67 73 58 52 54 60 66 63 67 76 82 87 86 83 81 87 89 92 81 81 76 70 64 62 62 64 59 53 49 44 39 36 33 31 32 33 34 36 39 40 47 51 51 52 52
54 58 58 62 70 70 66 55 54 58 62 58 59 68 67 69 72 69 66 66 72 81 85 88 84 78 73 74 71 66 61 54 50 43 38 33 27 25 24 25 25 26 28 31 34 40 45 50 54
60 67 70 84 80 80 83 74 60 60 62 65 66 62 59 60 63 66 66 67 73 77 84 92 89 85 79 78 76 70 62 56 51 44 38 29 28 27 25 26 29 28 27 28 29 35 37 38 42

GFSSGP_prec_cthk_150.txt.gz
RH
14 13 13 14 16 17 19 17 18 23 29 30 36 41 42 49 51 57 55 53 52 50 54 44 43 41 41 36 31 31 28 29 31 32 32 31 30 29 28 27 27 28 29 29 28 27 27 28 28
14 13 13 15 19 18 18 18 17 20 30 32 37 40 45 51 57 57 54 55 58 57 59 52 48 54 43 39 37 35 34 33 34 33 33 33 33 32 31 31 30 29 29 30 31 30 28 29 30
15 14 14 19 24 22 19 17 22 28 32 31 35 39 43 49 51 49 48 51 56 58 58 56 53 53 49 47 49 43 37 35 35 36 36 36 36 36 36 35 34 33 31 30 31 32 32 30 30
15 14 16 18 21 20 20 18 26 32 32 32 34 38 44 45 47 43 42 43 48 51 56 56 57 55 53 52 50 42 39 38 38 39 40 40 40 41 42 42 41 40 39 36 33 32 32 33 32
14 14 18 20 23 22 21 20 29 30 30 33 35 41 47 49 46 43 44 44 43 45 49 49 51 52 49 43 41 42 42 41 41 42 44 45 46 47 47 48 48 48 46 44 44 41 38 35 36
14 15 19 21 21 22 21 20 25 28 29 31 36 38 46 51 42 39 41 42 43 40 45 48 49 44 40 40 41 41 40 41 42 43 45 47 47 48 49 50 51 53 55 55 56 54 55 49 43
14 16 19 20 22 20 22 22 23 26 29 31 33 36 46 51 41 38 40 39 38 38 39 40 38 38 39 40 41 42 43 43 44 45 48 45 41 41 45 46 46 46 50 55 60 65 70 73 68
12 16 18 18 20 22 22 23 25 27 26 30 33 33 46 48 47 45 37 38 36 34 35 35 37 38 38 39 40 42 43 44 46 46 41 37 36 38 39 43 49 54 55 56 57 62 66 67 68
13 15 16 14 16 21 23 26 27 27 26 28 31 27 37 46 46 45 36 33 35 35 36 39 40 40 40 39 40 42 44 42 36 34 30 32 34 36 38 41 47 46 49 50 57 62 64 66 69
14 16 15 13 16 19 22 26 27 26 27 31 30 30 39 45 44 40 33 30 31 32 35 37 36 35 38 40 39 34 28 28 29 29 30 32 34 36 39 38 43 49 51 48 50 53 56 63 67
16 16 16 14 15 19 21 22 25 27 29 30 31 35 39 41 39 35 29 30 31 30 26 23 21 19 18 18 20 22 24 25 25 25 27 30 34 38 40 42 43 48 53 54 54 54 52 51 51
19 19 18 17 18 19 22 24 26 28 29 28 31 30 35 35 32 30 28 28 28 26 22 20 18 17 18 17 17 17 19 23 24 22 25 29 35 40 42 44 49 54 54 54 54 52 54 46 38
20 21 22 20 19 21 22 23 24 27 27 27 28 29 30 30 29 28 27 27 26 23 20 19 20 19 20 19 18 19 21 24 28 33 33 32 39 41 42 49 50 51 51 49 46 42 37 35 36
22 23 23 22 20 19 19 21 21 23 24 23 25 24 25 25 23 23 24 25 23 23 23 23 23 24 25 24 22 20 22 24 27 28 29 30 32 33 32 34 38 38 40 39 37 36 35 34 34
24 25 23 22 21 21 20 20 19 20 22 21 19 20 22 23 23 24 25 24 25 25 25 26 27 27 28 27 26 25 22 23 24 25 25 26 27 27 28 28 29 30 31 32 34 35 36 37 38
24 23 24 18 19 19 19 18 19 19 18 19 20 22 23 25 27 28 29 29 29 27 27 27 27 29 29 28 28 27 25 23 23 23 24 24 24 25 25 26 25 26 26 27 27 28 31 34 36
28 23 25 21 18 18 19 18 16 17 20 20 22 25 27 29 31 32 31 31 30 29 29 29 29 31 31 31 31 28 25 25 25 23 21 19 19 19 19 18 18 18 18 18 19 21 21 23 26
30 31 28 26 21 21 22 21 19 20 24 25 26 28 31 33 34 34 33 33 32 32 32 31 30 31 31 32 32 31 27 24 22 21 20 19 18 18 17 17 17 16 16 17 16 16 16 17 18
31 33 33 29 25 25 23 24 23 24 25 28 30 32 34 36 37 37 37 37 36 36 36 35 34 35 35 36 36 34 29 26 27 26 24 22 20 20 19 19 19 18 17 17 17 16 16 14 14
37 37 36 33 29 30 29 28 26 27 28 29 31 34 36 39 39 40 41 42 42 42 43 42 41 41 39 38 37 35 33 32 30 30 27 26 25 24 23 22 21 21 21 20 20 19 19 18 17
41 41 40 37 35 33 33 30 28 27 27 28 31 32 36 37 39 41 42 44 45 45 45 46 46 43 42 39 38 35 36 35 36 37 34 31 29 29 27 25 25 25 25 24 24 23 23 22 21
45 41 40 43 42 45 37 35 29 30 30 30 32 34 35 36 40 43 44 45 46 48 49 50 47 45 42 40 38 40 41 42 42 44 40 38 37 36 31 27 26 28 29 28 27 27 26 26 25
43 40 43 43 45 45 42 45 31 31 32 33 33 33 35 37 39 41 44 47 49 51 54 52 52 50 43 46 46 45 46 45 46 48 43 46 44 42 34 30 29 27 27 27 28 29 30 29 30
48 46 45 48 49 53 46 48 30 34 33 33 33 35 38 40 42 46 49 52 55 58 58 58 55 50 50 48 45 45 46 50 51 50 50 47 46 42 37 34 34 31 29 28 28 29 30 32 31
50 52 59 58 61 53 45 50 36 38 39 39 38 37 39 41 44 48 51 56 60 63 65 59 52 53 54 55 56 57 56 61 59 58 55 53 48 43 40 37 35 33 31 26 26 27 29 32 32
50 52 61 62 61 51 48 50 41 49 47 44 40 40 43 49 50 52 58 63 68 71 70 67 67 73 67 67 67 67 68 68 62 64 65 54 51 45 42 38 34 30 27 23 22 22 24 31 33
45 49 47 56 59 62 54 49 49 53 52 50 50 50 51 51 55 59 66 68 69 69 70 71 79 78 74 73 71 71 69 69 67 66 62 56 51 47 43 38 31 25 24 25 21 19 21 23 28
44 45 54 63 65 64 56 56 54 59 58 54 53 53 55 57 61 65 68 72 73 76 75 73 72 69 68 72 71 68 70 70 68 71 69 65 61 54 46 34 28 24 21 23 23 21 21 21 25
52 52 52 56 63 60 56 55 49 59 59 60 59 60 58 59 59 62 66 70 71 73 73 75 73 72 71 74 76 73 72 83 85 79 72 66 59 51 44 35 28 27 24 24 27 26 23 22 27
64 67 66 72 67 74 72 64 62 66 69 69 66 61 60 61 61 62 63 63 66 69 72 78 78 79 78 81 78 80 79 76 76 76 73 67 60 53 44 34 30 29 27 23 24 25 27 29 27

GFSSGP_prec_cthk_153.txt.gz
RH
13 13 13 14 14 15 15 15 18 25 28 32 35 36 39 43 44 51 55 46 46 44 43 42 41 43 44 49 35 33 34 35 32 31 31 30 29 29 29 30 31 31 31 31 30 31 31 29 28
14 13 14 15 16 15 15 16 19 24 31 35 39 42 42 50 53 57 54 48 49 49 52 54 52 49 51 45 41 41 42 40 36 34 34 35 35 34 33 32 31 31 32 32 32 32 32 33 31
13 13 14 15 17 15 15 15 18 29 32 34 39 42 44 49 53 55 54 52 56 55 59 59 56 54 58 50 45 52 45 41 40 39 39 39 40 40 41 40 39 38 36 35 34 33 33 33 33
13 13 14 15 17 17 17 17 24 32 33 34 35 40 48 51 53 50 49 48 52 55 57 54 49 52 48 46 46 45 42 40 40 41 42 43 43 44 44 45 46 46 46 44 42 39 36 35 34
12 13 15 16 17 19 19 18 28 32 32 34 36 42 46 51 51 44 44 46 47 48 48 51 52 53 52 48 45 43 41 40 40 40 42 43 45 47 47 48 49 49 51 54 56 55 53 47 43
12 13 15 16 17 19 19 22 28 29 31 36 40 39 46 51 46 38 40 44 45 45 48 53 55 55 50 45 43 41 41 41 42 43 44 46 46 45 40 41 45 47 49 54 56 56 57 61 62
11 14 15 17 17 19 20 21 28 28 29 33 35 34 42 49 46 41 38 41 42 42 43 47 48 45 43 41 42 43 43 44 44 45 46 48 45 39 36 36 40 43 49 56 64 70 69 65 65
11 13 16 16 16 18 19 21 25 26 29 35 34 34 41 44 46 43 41 36 36 38 38 40 39 39 39 40 41 42 43 44 44 45 45 40 40 37 36 36 37 39 44 50 51 52 55 61 69
12 13 15 14 15 17 19 22 25 26 30 33 33 32 36 44 47 45 40 35 33 34 35 36 36 37 36 38 39 39 40 40 41 36 32 33 33 32 33 35 36 37 40 43 47 49 53 54 58
13 14 13 13 15 18 18 22 24 27 31 34 34 32 38 43 46 44 39 32 31 31 32 35 37 35 33 31 31 32 32 29 26 26 27 29 30 31 33 33 34 36 37 41 43 45 48 48 49
16 14 14 14 15 17 19 20 23 26 30 30 30 33 40 43 45 42 35 30 31 31 31 29 24 20 18 17 18 19 20 24 25 26 26 28 29 31 35 38 41 41 41 45 49 50 51 52 53
20 17 16 17 17 18 20 21 23 24 26 27 30 32 37 42 42 39 33 29 30 30 28 24 20 17 17 18 18 17 17 19 24 26 28 32 34 34 35 40 43 50 49 50 52 53 52 51 46
18 17 20 20 20 21 21 22 22 24 25 26 29 33 39 40 38 34 33 30 28 27 25 21 21 21 20 21 20 20 21 21 22 24 26 29 31 32 32 30 30 33 36 39 38 38 44 40 36
23 21 21 21 22 22 22 23 22 22 24 26 29 30 32 32 31 30 29 27 25 25 23 23 24 24 24 24 24 23 23 22 21 20 20 20 21 22 22 23 23 24 26 27 29 30 31 31 32
25 23 21 21 22 23 22 21 20 22 23 24 26 28 29 29 29 29 28 28 27 26 26 27 27 28 28 28 25 25 25 24 23 22 22 22 22 22 21 21 21 21 21 21 22 22 23 25 27
26 24 22 21 21 21 21 19 19 20 22 24 24 24 24 25 26 28 28 29 29 29 30 31 31 31 30 29 28 27 27 26 24 23 23 22 19 18 17 16 16 15 15 15 15 16 17 18 20
32 26 28 24 21 21 21 19 18 18 19 19 22 22 23 25 28 30 31 31 31 31 32 32 32 33 33 32 31 30 29 29 27 24 21 21 20 19 19 17 16 15 14 14 14 13 13 12 13
32 31 28 26 24 25 24 22 20 21 22 21 24 26 27 29 32 34 35 34 34 33 33 34 35 36 36 35 33 33 33 30 26 26 25 23 23 22 21 19 18 17 17 16 16 15 15 14 13
31 29 28 29 29 28 26 24 22 22 24 24 25 28 31 33 35 37 38 38 37 36 36 38 37 37 38 38 37 35 33 31 30 31 32 30 30 30 27 25 23 22 20 19 17 17 17 16 15
37 35 34 33 32 30 28 26 24 24 24 26 28 31 34 37 38 41 42 41 41 40 40 40 40 40 41 42 41 38 34 34 33 35 36 34 35 35 32 29 26 26 24 21 19 18 19 20 20
41 40 40 37 36 32 30 25 25 25 25 26 29 31 34 36 39 42 43 44 44 43 43 45 45 45 46 47 44 40 37 36 38 40 39 39 39 39 37 34 31 30 28 23 22 20 21 22 24
45 43 40 40 40 39 35 26 25 27 27 28 29 32 34 39 43 45 45 46 46 46 47 47 48 49 49 47 45 42 39 42 45 43 42 41 42 41 41 37 34 31 30 28 25 23 22 23 24
51 49 46 43 45 43 39 39 24 29 30 31 32 36 39 42 43 44 46 48 49 50 50 50 50 50 50 49 48 45 45 46 47 45 48 49 50 48 45 40 37 33 32 29 27 26 28 27 25
52 51 52 52 52 49 44 45 23 29 30 34 36 38 40 40 42 43 46 48 49 51 53 54 54 55 55 54 49 50 49 48 51 54 54 58 53 53 50 44 39 35 35 33 28 26 29 30 28
54 54 59 62 62 47 45 47 31 34 36 37 38 39 40 42 43 44 45 48 53 57 59 63 60 59 57 55 57 55 55 58 59 61 62 58 55 52 50 47 40 35 32 31 27 24 25 27 27
60 59 58 68 62 51 53 45 37 46 47 45 44 44 45 46 47 49 50 55 62 65 66 66 67 65 66 65 62 62 68 68 67 67 59 58 57 52 50 49 43 39 36 33 30 26 24 23 24
51 55 52 60 61 62 47 43 46 50 49 48 50 51 51 51 50 52 55 59 67 72 75 74 74 74 74 76 67 63 62 63 60 59 62 58 58 59 56 52 47 41 34 32 27 27 26 23 23
46 47 55 61 60 60 44 49 48 55 53 53 55 55 57 59 60 61 63 68 76 80 79 78 75 78 77 75 71 68 66 65 64 65 67 67 71 65 55 51 45 42 37 32 28 27 27 26 26
55 51 54 57 59 55 51 48 52 54 61 58 59 59 61 62 62 63 68 73 78 80 80 81 79 79 77 75 71 70 71 69 69 73 70 65 63 62 58 52 47 37 33 32 29 26 26 27 27
67 71 70 72 63 70 66 56 60 63 69 63 64 66 64 67 73 73 72 74 78 78 78 80 82 84 84 79 77 77 73 78 71 68 70 67 56 52 47 42 35 30 30 30 30 30 27 28 28